This is the latest recevied weather packets stored in our database for station/object KK4EQF. If no packets are shown the sender has not sent any weather packets the latest 1 day(s).
| Time | Temp. | Humidity | Pressure | Rain* | Wind** | Luminosity | Snow |
|---|---|---|---|---|---|---|---|
| 1777994135 | 26.67° C | 32% | 1016.4 hPa | 0 mm | 0.89 m/s, 63° | - | - |
| 1777994074 | 26.67° C | 31% | 1016.4 hPa | 0 mm | 0.89 m/s, 63° | - | - |
| 1777994012 | 26.67° C | 31% | 1016.4 hPa | 0 mm | 0.89 m/s, 63° | - | - |
| 1777993947 | 26.67° C | 32% | 1016.4 hPa | 0 mm | 0.89 m/s, 79° | - | - |
| 1777993884 | 26.67° C | 32% | 1016.4 hPa | 0 mm | 0.89 m/s, 79° | - | - |
| 1777993824 | 26.67° C | 33% | 1016.3 hPa | 0 mm | 0.89 m/s, 38° | - | - |
| 1777993765 | 26.67° C | 32% | 1016.4 hPa | 0 mm | 0.89 m/s, 100° | - | - |
| 1777993706 | 26.67° C | 33% | 1016.4 hPa | 0 mm | 0.89 m/s, 101° | - | - |
| 1777993640 | 26.67° C | 34% | 1016.4 hPa | 0 mm | 0.89 m/s, 101° | - | - |
| 1777993579 | 26.67° C | 33% | 1016.4 hPa | 0 mm | 0.89 m/s, 88° | - | - |
| 1777993518 | 26.67° C | 32% | 1016.4 hPa | 0 mm | 0.89 m/s, 88° | - | - |
| 1777993464 | 26.67° C | 32% | 1016.4 hPa | 0 mm | 0.89 m/s, 40° | - | - |
| 1777993400 | 26.67° C | 29% | 1016.4 hPa | 0 mm | 0.89 m/s, 38° | - | - |
| 1777993341 | 26.67° C | 26% | 1016.4 hPa | 0 mm | 0.89 m/s, 38° | - | - |
| 1777993278 | 26.67° C | 27% | 1016.4 hPa | 0 mm | 0.89 m/s, 38° | - | - |
| 1777993219 | 26.67° C | 29% | 1016.4 hPa | 0 mm | 0.89 m/s, 38° | - | - |
| 1777993158 | 26.67° C | 30% | 1016.4 hPa | 0 mm | 0.89 m/s, 38° | - | - |
| 1777993092 | 26.67° C | 30% | 1016.4 hPa | 0 mm | 0.89 m/s, 67° | - | - |
| 1777993026 | 26.67° C | 30% | 1016.4 hPa | 0 mm | 0.89 m/s, 55° | - | - |
| 1777992966 | 27.22° C | 30% | 1016.4 hPa | 0 mm | 0.89 m/s, 69° | - | - |
| 1777992907 | 27.22° C | 29% | 1016.4 hPa | 0 mm | 0.89 m/s, 77° | - | - |
| 1777992848 | 27.22° C | 28% | 1016.3 hPa | 0 mm | 0.89 m/s, 111° | - | - |
| 1777992788 | 27.22° C | 26% | 1016.3 hPa | 0 mm | 0.89 m/s, 64° | - | - |
| 1777992725 | 27.22° C | 27% | 1016.4 hPa | 0 mm | 0.89 m/s, 64° | - | - |
| 1777992664 | 26.67° C | 28% | 1016.3 hPa | 0 mm | 0.45 m/s, 115° | - | - |
* Rain latest hour (hover to see other rain measurements)
** Current wind speed in m/s (hover to see current wind gust speed)